| time (UTC) | temp C | wind direction | speed KPH | gust KPH | rain 1hr cm | rain 24hr cm | rain mn cm | humidity % | barometer mb |
| 20260906011305 | 28 | 31 | 0.0 | 0.0 | 0.00 | 0.48 | 0.48 | 89 | 1011.5 |
| 20260906010801 | 28 | 31 | 0.0 | 0.0 | 0.00 | 0.48 | 0.48 | 89 | 1011.5 |
| 20260906010227 | 28 | 31 | 0.0 | 1.6 | 0.00 | 0.48 | 0.48 | 89 | 1011.5 |
| 20260906005647 | 28 | 31 | 0.0 | 1.6 | 0.00 | 0.48 | 0.48 | 88 | 1011.5 |
| 20260906005144 | 28 | 31 | 0.0 | 1.6 | 0.00 | 0.48 | 0.48 | 88 | 1011.9 |
| 20260906004641 | 28 | 30 | 0.0 | 1.6 | 0.00 | 0.48 | 0.48 | 88 | 1011.9 |
| 20260906004138 | 28 | 30 | 0.0 | 1.6 | 0.00 | 0.48 | 0.48 | 88 | 1011.9 |
| 20260906003636 | 28 | 30 | 0.0 | 1.6 | 0.00 | 0.48 | 0.48 | 88 | 1011.9 |
| 20260906003114 | 28 | 30 | 0.0 | 1.6 | 0.00 | 0.48 | 0.48 | 87 | 1011.9 |
| 20260906002611 | 28 | 30 | 0.0 | 4.8 | 0.00 | 0.48 | 0.48 | 87 | 1011.9 |
| 20260906002108 | 28 | 30 | 0.0 | 4.8 | 0.00 | 0.48 | 0.48 | 87 | 1011.9 |
| 20260906001605 | 29 | 30 | 0.0 | 4.8 | 0.00 | 0.48 | 0.48 | 87 | 1011.9 |
| 20260906001102 | 29 | 57 | 1.6 | 4.8 | 0.00 | 0.48 | 0.48 | 87 | 1012.2 |
| 20260906000527 | 29 | 5 | 3.2 | 4.8 | 0.00 | 0.48 | 0.48 | 87 | 1012.2 |
| 20260906000024 | 29 | 10 | 1.6 | 4.8 | 0.00 | 0.48 | 0.48 | 87 | 1012.2 |
| 20260905235522 | 29 | 21 | 1.6 | 4.8 | 0.00 | 0.48 | 0.48 | 87 | 1012.2 |
| 20260905235019 | 29 | 26 | 1.6 | 4.8 | 0.00 | 0.48 | 0.48 | 87 | 1012.2 |
| 20260905234516 | 29 | 27 | 1.6 | 4.8 | 0.00 | 0.48 | 0.48 | 87 | 1012.2 |
| 20260905234012 | 29 | 355 | 0.0 | 4.8 | 0.00 | 0.48 | 0.48 | 87 | 1012.2 |
| 20260905233509 | 29 | 27 | 1.6 | 4.8 | 0.00 | 0.48 | 0.48 | 86 | 1012.2 |
| 20260905232950 | 30 | 23 | 1.6 | 4.8 | 0.00 | 0.48 | 0.48 | 86 | 1012.2 |
| 20260905232415 | 30 | 360 | 0.0 | 4.8 | 0.00 | 0.48 | 0.48 | 87 | 1011.9 |
| 20260905231913 | 30 | 0 | 3.2 | 6.4 | 0.00 | 0.48 | 0.48 | 87 | 1011.9 |
| 20260905231410 | 30 | 61 | 1.6 | 8.0 | 0.00 | 0.48 | 0.48 | 86 | 1011.9 |
| 20260905230835 | 30 | 32 | 1.6 | 8.0 | 0.00 | 0.48 | 0.48 | 86 | 1011.9 |
| 20260905230314 | 30 | 69 | 1.6 | 8.0 | 0.00 | 0.48 | 0.48 | 86 | 1011.9 |
| 20260905225811 | 30 | 71 | 1.6 | 8.0 | 0.00 | 0.48 | 0.48 | 85 | 1011.9 |
| 20260905225206 | 30 | 0 | 1.6 | 4.8 | 0.00 | 0.48 | 0.48 | 86 | 1011.9 |
| 20260905224703 | 30 | 65 | 1.6 | 4.8 | 0.00 | 0.48 | 0.48 | 85 | 1011.9 |
| 20260905224200 | 30 | 39 | 1.6 | 4.8 | 0.00 | 0.48 | 0.48 | 85 | 1012.2 |
| 20260905223657 | 30 | 76 | 1.6 | 4.8 | 0.00 | 0.48 | 0.48 | 85 | 1011.9 |
| 20260905223153 | 30 | 323 | 1.6 | 4.8 | 0.00 | 0.48 | 0.48 | 86 | 1011.9 |
| 20260905222650 | 30 | 49 | 0.0 | 4.8 | 0.00 | 0.48 | 0.48 | 86 | 1011.9 |
| 20260905222147 | 30 | 85 | 1.6 | 4.8 | 0.00 | 0.48 | 0.48 | 85 | 1011.9 |
| 20260905221644 | 30 | 22 | 1.6 | 4.8 | 0.00 | 0.48 | 0.48 | 85 | 1011.9 |
| 20260905221140 | 30 | 34 | 1.6 | 6.4 | 0.00 | 0.48 | 0.48 | 84 | 1011.9 |
| 20260905220637 | 31 | 58 | 1.6 | 8.0 | 0.00 | 0.48 | 0.48 | 83 | 1011.9 |
| 20260905220135 | 31 | 42 | 0.0 | 8.0 | 0.00 | 0.48 | 0.48 | 84 | 1011.9 |
| 20260905215631 | 31 | 9 | 3.2 | 8.0 | 0.00 | 0.48 | 0.48 | 82 | 1011.9 |
| 20260905215128 | 31 | 47 | 1.6 | 8.0 | 0.00 | 0.48 | 0.48 | 83 | 1011.9 |
| 20260905214555 | 31 | 56 | 3.2 | 8.0 | 0.00 | 0.48 | 0.48 | 80 | 1011.9 |
| 20260905214052 | 31 | 69 | 3.2 | 8.0 | 0.00 | 0.48 | 0.48 | 80 | 1011.9 |
| 20260905213549 | 31 | 68 | 3.2 | 8.0 | 0.00 | 0.48 | 0.48 | 79 | 1011.9 |
| 20260905213046 | 31 | 52 | 3.2 | 4.8 | 0.00 | 0.48 | 0.48 | 78 | 1011.9 |
| 20260905212512 | 32 | 280 | 1.6 | 1.6 | 0.00 | 0.48 | 0.48 | 79 | 1011.9 |
| 20260905212010 | 32 | 280 | 1.6 | 1.6 | 0.00 | 0.48 | 0.48 | 81 | 1012.2 |
| 20260905211507 | 32 | 280 | 1.6 | 3.2 | 0.00 | 0.48 | 0.48 | 78 | 1011.9 |
| 20260905211004 | 32 | 280 | 0.0 | 3.2 | 0.00 | 0.48 | 0.48 | 78 | 1011.9 |
| 20260905210501 | 32 | 280 | 1.6 | 3.2 | 0.00 | 0.48 | 0.48 | 78 | 1011.9 |
| 20260905205959 | 32 | 280 | 0.0 | 3.2 | 0.00 | 0.48 | 0.48 | 78 | 1012.2 |
| 20260905205456 | 32 | 280 | 1.6 | 4.8 | 0.00 | 0.48 | 0.48 | 76 | 1012.2 |
| 20260905204953 | 31 | 280 | 1.6 | 4.8 | 0.00 | 0.48 | 0.48 | 77 | 1012.2 |
| 20260905204450 | 31 | 279 | 1.6 | 6.4 | 0.00 | 0.48 | 0.48 | 76 | 1012.2 |
| 20260905203947 | 31 | 281 | 3.2 | 6.4 | 0.00 | 0.48 | 0.48 | 78 | 1012.2 |
| 20260905203445 | 31 | 257 | 1.6 | 6.4 | 0.00 | 0.48 | 0.48 | 81 | 1012.5 |
| 20260905202942 | 31 | 257 | 1.6 | 6.4 | 0.00 | 0.48 | 0.48 | 83 | 1012.5 |
| 20260905202439 | 31 | 291 | 3.2 | 6.4 | 0.00 | 0.48 | 0.48 | 84 | 1012.5 |
| 20260905201936 | 30 | 292 | 3.2 | 6.4 | 0.00 | 0.48 | 0.48 | 83 | 1012.5 |
| 20260905201433 | 30 | 300 | 1.6 | 4.8 | 0.00 | 0.48 | 0.48 | 85 | 1012.5 |
| 20260905200911 | 30 | 300 | 1.6 | 4.8 | 0.00 | 0.48 | 0.48 | 85 | 1012.5 |
| 20260905200408 | 30 | 300 | 0.0 | 4.8 | 0.00 | 0.48 | 0.48 | 86 | 1012.5 |
| 20260905195905 | 30 | 313 | 0.0 | 1.6 | 0.00 | 0.48 | 0.48 | 86 | 1012.5 |
| 20260905195402 | 30 | 313 | 0.0 | 1.6 | 0.00 | 0.48 | 0.48 | 87 | 1012.5 |
| 20260905194859 | 30 | 313 | 0.0 | 1.6 | 0.00 | 0.48 | 0.48 | 87 | 1012.5 |
| 20260905194356 | 30 | 313 | 0.0 | 1.6 | 0.00 | 0.48 | 0.48 | 87 | 1012.5 |
| 20260905193853 | 29 | 313 | 0.0 | 1.6 | 0.00 | 0.48 | 0.48 | 87 | 1012.5 |
| 20260905193349 | 29 | 313 | 1.6 | 1.6 | 0.00 | 0.48 | 0.48 | 86 | 1012.9 |
| 20260905192847 | 29 | 312 | 0.0 | 1.6 | 0.00 | 0.48 | 0.48 | 88 | 1012.9 |
| 20260905192344 | 29 | 312 | 0.0 | 1.6 | 0.00 | 0.48 | 0.48 | 87 | 1012.9 |
| 20260905191840 | 29 | 312 | 0.0 | 1.6 | 0.00 | 0.48 | 0.48 | 87 | 1013.2 |
| 20260905191338 | 29 | 313 | 0.0 | 1.6 | 0.00 | 0.48 | 0.48 | 87 | 1013.2 |
| 20260905190835 | 29 | 313 | 1.6 | 1.6 | 0.00 | 0.51 | 0.48 | 86 | 1013.5 |
| 20260905190313 | 29 | 313 | 0.0 | 0.0 | 0.00 | 0.56 | 0.48 | 88 | 1013.5 |
| 20260905185720 | 30 | 313 | 0.0 | 0.0 | 0.00 | 0.61 | 0.48 | 87 | 1013.5 |
| 20260905185217 | 30 | 313 | 0.0 | 3.2 | 0.00 | 0.69 | 0.48 | 88 | 1013.5 |
| 20260905184714 | 30 | 313 | 0.0 | 3.2 | 0.00 | 0.79 | 0.48 | 88 | 1013.5 |
| 20260905183635 | 30 | 313 | 1.6 | 4.8 | 0.00 | 0.79 | 0.48 | 88 | 1013.5 |
| 20260905183132 | 30 | 357 | 1.6 | 4.8 | 0.00 | 0.79 | 0.48 | 88 | 1013.5 |
| 20260905182557 | 30 | 5 | 0.0 | 4.8 | 0.00 | 0.79 | 0.48 | 88 | 1013.9 |
| 20260905182053 | 29 | 0 | 1.6 | 6.4 | 0.00 | 0.79 | 0.48 | 86 | 1013.9 |
| 20260905181550 | 28 | 267 | 1.6 | 6.4 | 0.00 | 0.79 | 0.48 | 87 | 1013.9 |
| 20260905181047 | 28 | 267 | 1.6 | 6.4 | 0.00 | 0.79 | 0.48 | 90 | 1013.9 |
| 20260905180526 | 28 | 256 | 3.2 | 6.4 | 0.00 | 0.79 | 0.48 | 92 | 1014.2 |
| 20260905180004 | 27 | 284 | 1.6 | 3.2 | 0.00 | 0.79 | 0.48 | 91 | 1014.2 |
| 20260905175500 | 27 | 292 | 1.6 | 3.2 | 0.00 | 0.79 | 0.48 | 93 | 1014.2 |
| 20260905174958 | 26 | 294 | 1.6 | 1.6 | 0.00 | 0.79 | 0.48 | 92 | 1014.2 |
| 20260905174455 | 26 | 294 | 0.0 | 0.0 | 0.00 | 0.79 | 0.48 | 93 | 1014.2 |
| 20260905173952 | 26 | 294 | 0.0 | 0.0 | 0.00 | 0.79 | 0.48 | 93 | 1014.6 |
| 20260905173449 | 26 | 294 | 0.0 | 3.2 | 0.00 | 0.79 | 0.48 | 91 | 1014.6 |
| 20260905172946 | 26 | 294 | 0.0 | 12.9 | 0.03 | 0.79 | 0.48 | 90 | 1014.9 |
| 20260905172353 | 26 | 294 | 0.0 | 12.9 | 0.08 | 0.79 | 0.48 | 89 | 1014.9 |
| 20260905171850 | 26 | 232 | 0.0 | 12.9 | 0.15 | 0.79 | 0.48 | 88 | 1015.2 |
| 20260905171328 | 27 | 247 | 3.2 | 12.9 | 0.18 | 0.79 | 0.48 | 89 | 1015.2 |
| 20260905170825 | 28 | 244 | 3.2 | 6.4 | 0.23 | 0.79 | 0.48 | 91 | 1015.2 |
| 20260905170322 | 28 | 296 | 0.0 | 1.6 | 0.43 | 0.79 | 0.48 | 92 | 1014.9 |
| 20260905165759 | 28 | 296 | 1.6 | 3.2 | 0.48 | 0.79 | 0.48 | 93 | 1015.2 |
| 20260905165256 | 28 | 296 | 0.0 | 3.2 | 0.48 | 0.79 | 0.48 | 91 | 1014.9 |
| 20260905164753 | 28 | 296 | 0.0 | 3.2 | 0.48 | 0.79 | 0.48 | 91 | 1014.9 |
| 20260905164251 | 28 | 296 | 0.0 | 3.2 | 0.48 | 0.79 | 0.48 | 91 | 1014.9 |
| 20260905163747 | 28 | 297 | 0.0 | 4.8 | 0.48 | 0.79 | 0.48 | 89 | 1014.6 |
| 20260905163243 | 29 | 297 | 0.0 | 8.0 | 0.46 | 0.76 | 0.46 | 88 | 1014.6 |
| 20260905162740 | 30 | 297 | 0.0 | 8.0 | 0.46 | 0.76 | 0.46 | 87 | 1014.9 |
| 20260905162207 | 30 | 283 | 3.2 | 8.0 | 0.36 | 0.66 | 0.38 | 88 | 1014.9 |
| 20260905161633 | 30 | 259 | 4.8 | 8.0 | 0.33 | 0.64 | 0.33 | 87 | 1014.9 |
| 20260905161130 | 31 | 7 | 1.6 | 6.4 | 0.30 | 0.61 | 0.30 | 86 | 1014.9 |
| 20260905160609 | 31 | 10 | 1.6 | 8.0 | 0.18 | 0.48 | 0.18 | 85 | 1014.9 |
| 20260905160106 | 31 | 58 | 3.2 | 12.9 | 0.00 | 0.30 | 0.00 | 81 | 1014.6 |
| 20260905155602 | 31 | 37 | 3.2 | 12.9 | 0.00 | 0.30 | 0.00 | 82 | 1014.6 |
| 20260905155058 | 31 | 59 | 3.2 | 12.9 | 0.00 | 0.30 | 0.00 | 81 | 1014.6 |
| 20260905154525 | 31 | 53 | 3.2 | 12.9 | 0.00 | 0.30 | 0.00 | 79 | 1014.6 |
| 20260905154022 | 31 | 44 | 3.2 | 6.4 | 0.00 | 0.30 | 0.00 | 82 | 1014.6 |
| 20260905153519 | 31 | 36 | 0.0 | 3.2 | 0.00 | 0.30 | 0.00 | 81 | 1014.2 |
| 20260905153016 | 30 | 27 | 1.6 | 3.2 | 0.00 | 0.30 | 0.00 | 83 | 1014.6 |
| 20260905152513 | 30 | 299 | 1.6 | 4.8 | 0.00 | 0.30 | 0.00 | 84 | 1014.6 |
| 20260905152001 | 30 | 270 | 0.0 | 4.8 | 0.00 | 0.30 | 0.00 | 86 | 1014.6 |
| 20260905151457 | 30 | 270 | 0.0 | 4.8 | 0.00 | 0.30 | 0.00 | 84 | 1014.6 |
| 20260905150954 | 30 | 270 | 1.6 | 4.8 | 0.00 | 0.30 | 0.00 | 86 | 1014.6 |
| 20260905150423 | 29 | 273 | 3.2 | 4.8 | 0.00 | 0.30 | 0.00 | 86 | 1014.6 |
| 20260905145915 | 29 | 81 | 0.0 | 0.0 | 0.00 | 0.30 | 0.00 | 87 | 1014.6 |
| 20260905145341 | 28 | 81 | 0.0 | 0.0 | 0.00 | 0.30 | 0.00 | 87 | 1014.6 |
| 20260905144838 | 28 | 81 | 0.0 | 0.0 | 0.00 | 0.30 | 0.00 | 87 | 1014.6 |
| 20260905144335 | 28 | 81 | 0.0 | 0.0 | 0.00 | 0.30 | 0.00 | 88 | 1014.6 |
| 20260905143832 | 28 | 81 | 0.0 | 1.6 | 0.00 | 0.30 | 0.00 | 88 | 1014.6 |
| 20260905143329 | 28 | 81 | 0.0 | 1.6 | 0.00 | 0.30 | 0.00 | 89 | 1014.6 |
| 20260905142826 | 28 | 81 | 0.0 | 3.2 | 0.00 | 0.30 | 0.00 | 89 | 1014.6 |
| 20260905142322 | 28 | 81 | 0.0 | 3.2 | 0.00 | 0.30 | 0.00 | 90 | 1014.6 |
| 20260905141819 | 28 | 81 | 0.0 | 3.2 | 0.00 | 0.30 | 0.00 | 91 | 1014.6 |
| 20260905141245 | 28 | 81 | 1.6 | 3.2 | 0.00 | 0.30 | 0.00 | 91 | 1014.6 |
| 20260905140742 | 27 | 81 | 0.0 | 3.2 | 0.00 | 0.30 | 0.00 | 91 | 1014.2 |
| 20260905140239 | 27 | 81 | 1.6 | 3.2 | 0.00 | 0.30 | 0.00 | 92 | 1014.2 |
| 20260905135230 | 27 | 81 | 1.6 | 3.2 | 0.00 | 0.30 | 0.00 | 93 | 1014.2 |
| 20260905134727 | 27 | 81 | 0.0 | 3.2 | 0.00 | 0.30 | 0.00 | 94 | 1014.2 |
| 20260905134224 | 27 | 81 | 1.6 | 3.2 | 0.00 | 0.30 | 0.00 | 94 | 1014.2 |
| 20260905133721 | 27 | 81 | 0.0 | 1.6 | 0.00 | 0.30 | 0.00 | 95 | 1014.2 |
| 20260905133218 | 27 | 81 | 1.6 | 1.6 | 0.00 | 0.30 | 0.00 | 95 | 1014.2 |
| 20260905132637 | 27 | 81 | 0.0 | 1.6 | 0.00 | 0.30 | 0.00 | 95 | 1014.2 |
| 20260905132103 | 26 | 81 | 1.6 | 1.6 | 0.00 | 0.30 | 0.00 | 95 | 1014.2 |
| 20260905131600 | 26 | 81 | 1.6 | 1.6 | 0.00 | 0.30 | 0.00 | 95 | 1014.2 |
| 20260905131057 | 26 | 81 | 0.0 | 1.6 | 0.00 | 0.30 | 0.00 | 96 | 1014.2 |
| 20260905130522 | 26 | 81 | 0.0 | 0.0 | 0.00 | 0.30 | 0.00 | 96 | 1014.2 |
| 20260905130019 | 26 | 81 | 0.0 | 0.0 | 0.00 | 0.30 | 0.00 | 95 | 1014.2 |
| 20260905125516 | 26 | 81 | 0.0 | 0.0 | 0.00 | 0.30 | 0.00 | 95 | 1013.9 |
| 20260905125013 | 26 | 81 | 0.0 | 0.0 | 0.00 | 0.30 | 0.00 | 96 | 1013.9 |
| 20260905124510 | 25 | 81 | 0.0 | 0.0 | 0.00 | 0.30 | 0.00 | 95 | 1013.9 |
| 20260905124007 | 25 | 81 | 0.0 | 0.0 | 0.00 | 0.30 | 0.00 | 95 | 1013.5 |
| 20260905123503 | 25 | 81 | 0.0 | 0.0 | 0.00 | 0.30 | 0.00 | 95 | 1013.5 |
| 20260905123001 | 25 | 81 | 0.0 | 0.0 | 0.00 | 0.30 | 0.00 | 95 | 1013.5 |
| 20260905122457 | 25 | 81 | 0.0 | 0.0 | 0.00 | 0.30 | 0.00 | 95 | 1013.5 |
| 20260905121954 | 25 | 81 | 0.0 | 0.0 | 0.00 | 0.30 | 0.00 | 95 | 1013.5 |
| 20260905121432 | 25 | 81 | 0.0 | 0.0 | 0.00 | 0.30 | 0.00 | 95 | 1013.5 |
| 20260905120911 | 25 | 81 | 0.0 | 0.0 | 0.00 | 0.30 | 0.00 | 95 | 1013.5 |
| 20260905120408 | 25 | 81 | 0.0 | 0.0 | 0.00 | 0.30 | 0.00 | 95 | 1013.5 |
| 20260905115905 | 25 | 81 | 0.0 | 0.0 | 0.00 | 0.30 | 0.00 | 95 | 1013.2 |
| 20260905115259 | 25 | 81 | 0.0 | 0.0 | 0.00 | 0.30 | 0.00 | 95 | 1013.2 |
| 20260905114756 | 25 | 81 | 0.0 | 0.0 | 0.00 | 0.30 | 0.00 | 95 | 1013.2 |
| 20260905114215 | 25 | 81 | 0.0 | 0.0 | 0.00 | 0.30 | 0.00 | 95 | 1013.2 |
| 20260905113710 | 25 | 81 | 0.0 | 0.0 | 0.00 | 0.30 | 0.00 | 95 | 1013.2 |
| 20260905113206 | 25 | 81 | 0.0 | 0.0 | 0.00 | 0.30 | 0.00 | 95 | 1013.2 |
| 20260905112657 | 25 | 81 | 0.0 | 0.0 | 0.00 | 0.30 | 0.00 | 95 | 1013.2 |
| 20260905112154 | 25 | 81 | 0.0 | 0.0 | 0.00 | 0.30 | 0.00 | 95 | 1013.2 |
| 20260905111616 | 25 | 81 | 0.0 | 0.0 | 0.00 | 0.30 | 0.00 | 95 | 1012.9 |
| 20260905111042 | 25 | 81 | 0.0 | 0.0 | 0.00 | 0.30 | 0.00 | 95 | 1012.9 |
| 20260905110538 | 25 | 81 | 0.0 | 0.0 | 0.00 | 0.30 | 0.00 | 95 | 1012.9 |
| 20260905110036 | 25 | 81 | 0.0 | 0.0 | 0.00 | 0.30 | 0.00 | 95 | 1012.9 |
| 20260905105533 | 25 | 81 | 0.0 | 0.0 | 0.00 | 0.30 | 0.00 | 95 | 1012.9 |
| 20260905105030 | 25 | 81 | 0.0 | 0.0 | 0.00 | 0.30 | 0.00 | 95 | 1012.9 |
| 20260905104527 | 25 | 81 | 0.0 | 0.0 | 0.00 | 0.30 | 0.00 | 95 | 1012.9 |
| 20260905104024 | 25 | 81 | 0.0 | 0.0 | 0.00 | 0.30 | 0.00 | 95 | 1012.9 |
| 20260905103521 | 25 | 81 | 0.0 | 0.0 | 0.00 | 0.30 | 0.00 | 95 | 1012.9 |
| 20260905102928 | 25 | 81 | 0.0 | 0.0 | 0.00 | 0.30 | 0.00 | 95 | 1012.9 |
| 20260905102425 | 25 | 81 | 0.0 | 0.0 | 0.00 | 0.30 | 0.00 | 95 | 1012.9 |
| 20260905101922 | 25 | 81 | 0.0 | 0.0 | 0.00 | 0.30 | 0.00 | 95 | 1012.9 |
| 20260905101419 | 25 | 81 | 0.0 | 0.0 | 0.00 | 0.30 | 0.00 | 95 | 1012.9 |
| 20260905100916 | 26 | 81 | 0.0 | 0.0 | 0.00 | 0.30 | 0.00 | 95 | 1012.9 |
| 20260905100311 | 26 | 81 | 0.0 | 0.0 | 0.00 | 0.30 | 0.00 | 95 | 1012.9 |
| 20260905095807 | 26 | 81 | 0.0 | 0.0 | 0.00 | 0.30 | 0.00 | 95 | 1012.9 |
| 20260905095306 | 26 | 81 | 0.0 | 0.0 | 0.00 | 0.30 | 0.00 | 95 | 1012.9 |
| 20260905094802 | 25 | 81 | 0.0 | 0.0 | 0.00 | 0.30 | 0.00 | 95 | 1012.9 |
| 20260905094259 | 25 | 81 | 0.0 | 0.0 | 0.00 | 0.30 | 0.00 | 94 | 1012.9 |
| 20260905093756 | 25 | 81 | 0.0 | 0.0 | 0.00 | 0.30 | 0.00 | 94 | 1012.9 |
| 20260905093222 | 25 | 81 | 0.0 | 0.0 | 0.00 | 0.30 | 0.00 | 94 | 1012.9 |
| 20260905092647 | 25 | 81 | 0.0 | 0.0 | 0.00 | 0.30 | 0.00 | 94 | 1012.9 |
| 20260905092144 | 26 | 81 | 0.0 | 0.0 | 0.00 | 0.30 | 0.00 | 94 | 1012.9 |
| 20260905091642 | 25 | 81 | 0.0 | 0.0 | 0.00 | 0.30 | 0.00 | 94 | 1012.9 |
| 20260905091138 | 25 | 81 | 0.0 | 0.0 | 0.00 | 0.30 | 0.00 | 94 | 1012.9 |
| 20260905090636 | 25 | 81 | 0.0 | 0.0 | 0.00 | 0.30 | 0.00 | 94 | 1012.9 |
| 20260905090133 | 25 | 81 | 0.0 | 0.0 | 0.00 | 0.30 | 0.00 | 94 | 1012.9 |
| 20260905085630 | 25 | 81 | 0.0 | 0.0 | 0.00 | 0.30 | 0.00 | 94 | 1012.9 |
| 20260905085127 | 25 | 81 | 0.0 | 0.0 | 0.00 | 0.30 | 0.00 | 94 | 1012.9 |
| 20260905084624 | 25 | 81 | 0.0 | 0.0 | 0.00 | 0.30 | 0.00 | 94 | 1012.5 |
| 20260905084121 | 25 | 81 | 0.0 | 0.0 | 0.00 | 0.30 | 0.00 | 94 | 1012.5 |
| 20260905083559 | 25 | 81 | 0.0 | 0.0 | 0.00 | 0.30 | 0.00 | 94 | 1012.5 |
| 20260905083056 | 26 | 81 | 0.0 | 0.0 | 0.00 | 0.30 | 0.00 | 94 | 1012.5 |
| 20260905082554 | 26 | 81 | 0.0 | 0.0 | 0.00 | 0.30 | 0.00 | 94 | 1012.5 |
| 20260905082051 | 26 | 81 | 0.0 | 0.0 | 0.00 | 0.30 | 0.00 | 94 | 1012.5 |
| 20260905081517 | 26 | 81 | 0.0 | 0.0 | 0.00 | 0.30 | 0.00 | 94 | 1012.5 |
| 20260905080941 | 26 | 81 | 0.0 | 0.0 | 0.00 | 0.30 | 0.00 | 94 | 1012.5 |
| 20260905080436 | 26 | 81 | 0.0 | 0.0 | 0.00 | 0.30 | 0.00 | 94 | 1012.5 |
| 20260905075933 | 26 | 81 | 0.0 | 0.0 | 0.00 | 0.30 | 0.00 | 94 | 1012.5 |
| 20260905075426 | 26 | 81 | 0.0 | 0.0 | 0.00 | 0.30 | 0.00 | 94 | 1012.5 |
| 20260905074854 | 26 | 81 | 0.0 | 0.0 | 0.00 | 0.30 | 0.00 | 94 | 1012.5 |
| 20260905074324 | 26 | 81 | 0.0 | 0.0 | 0.00 | 0.30 | 0.00 | 94 | 1012.5 |
| 20260905073750 | 26 | 81 | 0.0 | 0.0 | 0.00 | 0.30 | 0.00 | 94 | 1012.5 |
| 20260905073145 | 26 | 81 | 0.0 | 0.0 | 0.00 | 0.30 | 0.00 | 94 | 1012.5 |
| 20260905072608 | 26 | 81 | 0.0 | 0.0 | 0.00 | 0.30 | 0.00 | 94 | 1012.9 |
| 20260905072105 | 26 | 81 | 0.0 | 0.0 | 0.00 | 0.30 | 0.00 | 94 | 1012.9 |
| 20260905071602 | 26 | 81 | 0.0 | 0.0 | 0.00 | 0.30 | 0.00 | 94 | 1012.9 |
| 20260905071059 | 26 | 81 | 0.0 | 0.0 | 0.00 | 0.30 | 0.00 | 94 | 1012.9 |
| 20260905070556 | 26 | 81 | 0.0 | 0.0 | 0.00 | 0.30 | 0.00 | 94 | 1012.9 |
| 20260905070015 | 26 | 81 | 0.0 | 0.0 | 0.00 | 0.30 | 0.00 | 94 | 1013.2 |
| 20260905065512 | 26 | 81 | 0.0 | 0.0 | 0.00 | 0.30 | 0.00 | 94 | 1013.2 |
| 20260905064938 | 26 | 81 | 0.0 | 0.0 | 0.00 | 0.30 | 0.00 | 93 | 1013.2 |
| 20260905064404 | 26 | 81 | 0.0 | 0.0 | 0.00 | 0.30 | 0.00 | 93 | 1013.2 |
| 20260905063900 | 26 | 81 | 0.0 | 0.0 | 0.00 | 0.30 | 0.00 | 93 | 1013.2 |
| 20260905063358 | 26 | 81 | 0.0 | 0.0 | 0.00 | 0.30 | 0.00 | 93 | 1013.2 |
| 20260905062823 | 26 | 81 | 0.0 | 0.0 | 0.00 | 0.30 | 0.00 | 93 | 1013.2 |
| 20260905062320 | 26 | 81 | 0.0 | 0.0 | 0.00 | 0.30 | 0.00 | 93 | 1013.2 |
| 20260905061817 | 26 | 81 | 0.0 | 0.0 | 0.00 | 0.30 | 0.00 | 93 | 1013.2 |
| 20260905061236 | 26 | 81 | 0.0 | 0.0 | 0.00 | 0.30 | 0.00 | 94 | 1013.5 |
| 20260905060714 | 26 | 81 | 0.0 | 0.0 | 0.00 | 0.30 | 0.00 | 93 | 1013.5 |
| 20260905060212 | 26 | 81 | 0.0 | 0.0 | 0.00 | 0.30 | 0.00 | 93 | 1013.2 |
| 20260905055433 | 26 | 81 | 0.0 | 0.0 | 0.00 | 0.30 | 0.00 | 93 | 1013.2 |
| 20260905054930 | 26 | 81 | 0.0 | 0.0 | 0.00 | 0.30 | 0.00 | 93 | 1013.5 |
| 20260905054427 | 26 | 81 | 0.0 | 0.0 | 0.00 | 0.30 | 0.00 | 93 | 1013.5 |
| 20260905053925 | 26 | 81 | 0.0 | 0.0 | 0.00 | 0.30 | 0.00 | 93 | 1013.5 |
| 20260905053422 | 26 | 81 | 0.0 | 0.0 | 0.00 | 0.30 | 0.00 | 93 | 1013.5 |
| 20260905052920 | 26 | 81 | 0.0 | 0.0 | 0.00 | 0.30 | 0.00 | 93 | 1013.5 |
| 20260905052417 | 26 | 81 | 0.0 | 0.0 | 0.00 | 0.30 | 0.00 | 93 | 1013.5 |
| 20260905051913 | 26 | 81 | 0.0 | 0.0 | 0.00 | 0.30 | 0.30 | 93 | 1013.5 |
| 20260905051411 | 26 | 81 | 0.0 | 0.0 | 0.00 | 0.30 | 0.30 | 93 | 1013.5 |
| 20260905050908 | 26 | 81 | 0.0 | 0.0 | 0.00 | 0.30 | 0.30 | 93 | 1013.5 |
| 20260905050405 | 26 | 81 | 0.0 | 0.0 | 0.00 | 0.30 | 0.30 | 93 | 1013.2 |
| 20260905045830 | 26 | 81 | 0.0 | 0.0 | 0.00 | 0.30 | 0.30 | 93 | 1013.5 |
| 20260905045255 | 26 | 81 | 0.0 | 0.0 | 0.00 | 0.30 | 0.30 | 93 | 1013.5 |
| 20260905044752 | 26 | 81 | 0.0 | 0.0 | 0.00 | 0.30 | 0.30 | 93 | 1013.5 |
| 20260905044218 | 26 | 81 | 0.0 | 0.0 | 0.00 | 0.30 | 0.30 | 93 | 1013.5 |
| 20260905043642 | 27 | 81 | 0.0 | 0.0 | 0.00 | 0.30 | 0.30 | 93 | 1013.5 |
| 20260905043139 | 27 | 81 | 0.0 | 0.0 | 0.00 | 0.30 | 0.30 | 92 | 1013.5 |
| 20260905042636 | 27 | 81 | 0.0 | 0.0 | 0.00 | 0.30 | 0.30 | 92 | 1013.5 |
| 20260905042101 | 27 | 81 | 0.0 | 0.0 | 0.00 | 0.30 | 0.30 | 92 | 1013.5 |
| 20260905041555 | 27 | 81 | 0.0 | 0.0 | 0.00 | 0.30 | 0.30 | 92 | 1013.9 |
| 20260905041020 | 27 | 81 | 0.0 | 0.0 | 0.00 | 0.30 | 0.30 | 92 | 1013.5 |
| 20260905040517 | 27 | 81 | 0.0 | 0.0 | 0.00 | 0.30 | 0.30 | 92 | 1013.5 |
| 20260905040014 | 27 | 81 | 0.0 | 0.0 | 0.00 | 0.30 | 0.30 | 92 | 1013.9 |
| 20260905035440 | 27 | 81 | 0.0 | 0.0 | 0.00 | 0.30 | 0.30 | 92 | 1013.9 |
| 20260905034937 | 27 | 81 | 0.0 | 0.0 | 0.00 | 0.30 | 0.30 | 92 | 1013.9 |
| 20260905034435 | 27 | 81 | 0.0 | 0.0 | 0.00 | 0.30 | 0.30 | 92 | 1013.9 |
| 20260905033900 | 27 | 81 | 0.0 | 0.0 | 0.00 | 0.30 | 0.30 | 92 | 1013.9 |
| 20260905033357 | 27 | 81 | 0.0 | 0.0 | 0.00 | 0.30 | 0.30 | 92 | 1013.9 |
| 20260905032855 | 27 | 81 | 0.0 | 0.0 | 0.00 | 0.30 | 0.30 | 92 | 1013.9 |
| 20260905032321 | 27 | 81 | 0.0 | 0.0 | 0.00 | 0.30 | 0.30 | 92 | 1013.9 |
| 20260905031817 | 27 | 81 | 0.0 | 0.0 | 0.00 | 0.30 | 0.30 | 91 | 1013.9 |
| 20260905031314 | 27 | 81 | 0.0 | 0.0 | 0.00 | 0.30 | 0.30 | 91 | 1013.9 |
| 20260905030811 | 27 | 81 | 0.0 | 0.0 | 0.00 | 0.30 | 0.30 | 91 | 1013.9 |
| 20260905030248 | 27 | 81 | 0.0 | 0.0 | 0.00 | 0.30 | 0.30 | 91 | 1013.9 |
| 20260905025623 | 27 | 81 | 0.0 | 0.0 | 0.00 | 0.30 | 0.30 | 91 | 1013.9 |
| 20260905025101 | 27 | 81 | 0.0 | 0.0 | 0.00 | 0.30 | 0.30 | 91 | 1013.9 |
| 20260905024557 | 27 | 81 | 0.0 | 0.0 | 0.00 | 0.30 | 0.30 | 91 | 1013.5 |
| 20260905024035 | 27 | 81 | 0.0 | 0.0 | 0.00 | 0.30 | 0.30 | 91 | 1013.5 |
| 20260905023516 | 27 | 81 | 0.0 | 0.0 | 0.00 | 0.30 | 0.30 | 90 | 1013.5 |
| 20260905022839 | 27 | 81 | 0.0 | 0.0 | 0.00 | 0.30 | 0.30 | 90 | 1013.5 |
| 20260905022336 | 27 | 81 | 0.0 | 0.0 | 0.00 | 0.30 | 0.30 | 90 | 1013.5 |
| 20260905021800 | 27 | 81 | 0.0 | 0.0 | 0.00 | 0.30 | 0.30 | 90 | 1013.5 |
| 20260905021226 | 27 | 81 | 0.0 | 0.0 | 0.00 | 0.30 | 0.30 | 90 | 1013.5 |
| 20260905020722 | 27 | 81 | 0.0 | 0.0 | 0.00 | 0.30 | 0.30 | 89 | 1013.2 |
| 20260905020219 | 27 | 81 | 0.0 | 0.0 | 0.00 | 0.30 | 0.30 | 89 | 1013.2 |
| 20260905015716 | 27 | 81 | 0.0 | 0.0 | 0.00 | 0.30 | 0.30 | 89 | 1013.2 |
| 20260905015214 | 28 | 81 | 0.0 | 0.0 | 0.00 | 0.30 | 0.30 | 89 | 1013.2 |
| 20260905014711 | 28 | 81 | 0.0 | 0.0 | 0.00 | 0.30 | 0.30 | 89 | 1013.2 |
| 20260905014207 | 28 | 81 | 0.0 | 0.0 | 0.00 | 0.30 | 0.30 | 89 | 1013.2 |
| 20260905013704 | 28 | 81 | 0.0 | 0.0 | 0.00 | 0.30 | 0.30 | 89 | 1013.2 |
| 20260905013201 | 28 | 81 | 0.0 | 0.0 | 0.00 | 0.30 | 0.30 | 89 | 1013.2 |
| 20260905012659 | 28 | 81 | 0.0 | 0.0 | 0.00 | 0.30 | 0.30 | 88 | 1013.2 |
| 20260905012156 | 28 | 81 | 0.0 | 0.0 | 0.00 | 0.30 | 0.30 | 88 | 1013.2 |
| 20260905011652 | 28 | 81 | 0.0 | 0.0 | 0.00 | 0.30 | 0.30 | 88 | 1012.9 |